OK1HOL-13 Weather Reports


Display with metric or nautical units.
time (UTC)temp
F
wind
direction
speed
MPH
gust
MPH
rain 1hr
in
rain 24hr
in
rain mn
in
humidity
%
barometer
mb
20260504232558 62 0.0 0.0 0.00 0.00 0.00 66 1010.3
20260504231558 62 0.0 0.0 0.00 0.00 0.00 65 1010.8
20260504230558 63 0.0 0.0 0.00 0.00 0.00 62 1010.6
20260504225558 63 0.0 0.0 0.00 0.00 0.00 63 1011.1
20260504224558 63 0.0 0.0 0.00 0.00 0.00 65 1011.8
20260504223558 64 0.0 0.0 0.00 0.00 0.00 61 1012.1
20260504222558 66 0.0 0.0 0.00 0.00 0.00 48 1012.2
20260504221558 65 0.0 0.0 0.00 0.00 0.00 50 1011.6
20260504220558 65 0.0 0.0 0.00 0.00 0.00 51 1011.1
20260504215558 65 0.0 0.0 0.00 0.00 0.00 53 1010.9
20260504214558 65 0.0 0.0 0.00 0.00 0.00 52 1010.9
20260504213558 66 0.0 0.0 0.00 0.00 0.00 52 1010.9
20260504212558 66 0.0 0.0 0.00 0.00 0.00 55 1010.9
20260504211558 67 0.0 0.0 0.00 0.00 0.00 53 1010.9
20260504210558 66 0.0 0.0 0.00 0.00 0.00 51 1011.0
20260504205558 67 0.0 0.0 0.00 0.00 0.00 51 1011.0
20260504204558 68 0.0 0.0 0.00 0.00 0.00 44 1011.1
20260504203558 68 0.0 0.0 0.00 0.00 0.00 44 1011.0
20260504202558 68 0.0 0.0 0.00 0.00 0.00 44 1011.1
20260504201558 68 0.0 0.0 0.00 0.00 0.00 43 1011.1
20260504200558 69 0.0 0.0 0.00 0.00 0.00 42 1011.2
20260504195558 69 0.0 0.0 0.00 0.00 0.00 41 1011.1
20260504194558 70 0.0 0.0 0.00 0.00 0.00 40 1011.1
20260504193558 70 0.0 0.0 0.00 0.00 0.00 39 1011.0
20260504191558 71 0.0 0.0 0.00 0.00 0.00 37 1011.0
20260504190558 72 0.0 0.0 0.00 0.00 0.00 36 1010.8
20260504185558 72 0.0 0.0 0.00 0.00 0.00 35 1010.7
20260504184558 72 0.0 0.0 0.00 0.00 0.00 34 1010.7
20260504183558 73 0.0 0.0 0.00 0.00 0.00 33 1010.6
20260504182558 73 0.0 0.0 0.00 0.00 0.00 32 1010.6
20260504181558 73 0.0 0.0 0.00 0.00 0.00 32 1010.6
20260504180558 74 0.0 0.0 0.00 0.00 0.00 31 1010.6
20260504175558 74 0.0 0.0 0.00 0.00 0.00 31 1010.6
20260504174558 74 0.0 0.0 0.00 0.00 0.00 31 1010.6
20260504173558 74 0.0 0.0 0.00 0.00 0.00 31 1010.6
20260504172558 75 0.0 0.0 0.00 0.00 0.00 31 1010.6
20260504171558 75 0.0 0.0 0.00 0.00 0.00 31 1010.6
20260504170558 75 0.0 0.0 0.00 0.00 0.00 31 1010.7
20260504150558 81 0.0 0.0 0.00 0.00 0.00 25 1011.3
20260504140558 80 0.0 0.0 0.00 0.00 0.00 26 1011.9
20260504130557 79 0.0 0.0 0.00 0.00 0.00 27 1012.2
20260504110557 76 0.0 0.0 0.00 0.00 0.00 28 1013.4
20260504100557 72 0.0 0.0 0.00 0.00 0.00 34 1014.1
20260504081557 72 0.0 0.0 0.00 0.00 0.00 34 1014.0
20260504080556 72 0.0 0.0 0.00 0.00 0.00 35 1014.0
20260504050556 56 0.0 0.0 0.00 0.00 0.00 56 1013.2
20260504045557 56 0.0 0.0 0.00 0.00 0.00 55 1013.0
20260504044557 56 0.0 0.0 0.00 0.00 0.00 56 1012.9
20260504043557 56 0.0 0.0 0.00 0.00 0.00 58 1013.1
20260504042557 56 0.0 0.0 0.00 0.00 0.00 55 1013.1
20260504041556 56 0.0 0.0 0.00 0.00 0.00 55 1013.4
20260504040557 56 0.0 0.0 0.00 0.00 0.00 55 1013.4
20260504035557 56 0.0 0.0 0.00 0.00 0.00 54 1013.3
20260504034556 56 0.0 0.0 0.00 0.00 0.00 55 1013.4
20260504033557 56 0.0 0.0 0.00 0.00 0.00 54 1013.2
20260504032557 57 0.0 0.0 0.00 0.00 0.00 52 1013.1
20260504031556 57 0.0 0.0 0.00 0.00 0.00 51 1013.0
20260504030557 57 0.0 0.0 0.00 0.00 0.00 52 1013.0
20260504025557 57 0.0 0.0 0.00 0.00 0.00 51 1013.1
20260504024557 58 0.0 0.0 0.00 0.00 0.00 50 1013.1
20260504023557 58 0.0 0.0 0.00 0.00 0.00 50 1013.1
20260504022557 58 0.0 0.0 0.00 0.00 0.00 49 1013.0
20260504021556 58 0.0 0.0 0.00 0.00 0.00 49 1013.0
20260504020557 59 0.0 0.0 0.00 0.00 0.00 48 1012.9
20260504015557 59 0.0 0.0 0.00 0.00 0.00 48 1012.8
20260504013557 59 0.0 0.0 0.00 0.00 0.00 48 1012.7
20260504012557 59 0.0 0.0 0.00 0.00 0.00 47 1012.8
20260504011600 60 0.0 0.0 0.00 0.00 0.00 46 1012.8
20260504010555 61 0.0 0.0 0.00 0.00 0.00 44 1012.8
20260504005555 61 0.0 0.0 0.00 0.00 0.00 44 1012.8
20260504004555 62 0.0 0.0 0.00 0.00 0.00 43 1012.7
20260504003555 62 0.0 0.0 0.00 0.00 0.00 42 1012.5
20260504002555 62 0.0 0.0 0.00 0.00 0.00 42 1012.3
20260504001555 63 0.0 0.0 0.00 0.00 0.00 42 1012.2
20260504000555 64 0.0 0.0 0.00 0.00 0.00 41 1012.4
20260503235555 64 0.0 0.0 0.00 0.00 0.00 40 1012.4
20260503234555 64 0.0 0.0 0.00 0.00 0.00 39 1012.2
20260503233555 64 0.0 0.0 0.00 0.00 0.00 39 1012.1